weather.gov     
National Weather Service

Terminal Aerodrome Forecast
NWS Homepage
This page is being discontinued on March 12, 2014.
The same data is available at this site. Please update your bookmarks.
Thank you, and we apologize for the inconvenience.
Please send an email to SR-SRH.Webmaster@noaa.gov with any concerns.


Current Version
Previous Version:    01  02  03  04  05  06  07  08  09  10  11  12  13  14  15  16  17  18  19  20  21  22  23  24  25  26  27  28  29  30  
   31  32  33  34  35  36  37  38  39  
[Printable]
853
FTUS41 KBTV 160500
TAFSLK
TAF
KSLK 160523Z 1606/1706 00000KT P6SM -SHRA OVC050
      TEMPO 1608/1611 5SM -RA BR BKN030 OVC050
     FM161100 VRB03KT P6SM OVC030
     FM161600 28006KT P6SM BKN040
     FM162100 27007KT P6SM SCT050
     FM170100 00000KT P6SM SCT250=


U.S. Dept. of Commerce
NOAA National Weather Service
1325 East West Highway
Silver Spring, MD 20910
E-mail: w-nws.webmaster@noaa.gov
Page last modified: May 16, 2007
NATIONAL WEATHER SERVICE: for Safety, for Work, for Fun - FOR LIFE